[[{"header":{"parameterUnit":"m.s-1","parameterCategory":1,"la1":30.2991,"la2":30.254,"lo1":-89.0895,"lo2":-89.0444,"dy":0.0017,"dx":0.0017,"nx":28,"ny":28,"refTime":"2024-04-14T09:00:00:Z","depth":0,"parameterNumber":2,"parameterNumberName":"U-component_of_WINDS"},"data":[0,0,0,0,0,0,0,0,0,0,0,0,0,0,0,0,0,0,0,0,0,0,0,0,0,0,0,0,0,0,0,0,0,0,0,0,0,0,0,0,0,0,0,0,0,0,0,0,0,0,0,0,0,0,0,0,0,0,1.5396,1.5395,0,1.5336,1.5335,1.5334,1.5238,1.5236,1.5234,1.5232,1.5171,1.5171,1.5171,0,0,0,0,0,0,0,0,0,0,0,0,0,1.5426,1.5426,1.5396,1.5395,1.5394,1.5336,1.5335,1.5334,1.5238,1.5236,1.5234,1.5232,1.5171,1.5171,1.5171,0,0,0,0,0,0,0,0,0,0,0,0,0,1.5394,1.5426,1.5396,1.5339,1.5334,1.5336,1.5335,1.5334,1.5238,1.5236,1.5233,1.5231,1.5171,1.5171,1.5171,1.5224,0,0,1.5171,1.5171,0,0,0,0,0,0,0,0,1.5396,1.5393,1.5348,1.5343,1.5337,1.5291,1.5323,1.5297,1.5239,1.5275,1.5232,1.5229,1.5213,1.521,1.5204,1.5221,1.5219,1.5171,1.5171,1.5171,1.5171,0,0,0,0,0,0,0,1.5398,1.5395,1.5372,1.5348,1.5341,1.5316,1.5309,1.5318,1.526,1.5271,1.5264,1.5258,1.521,1.5204,1.5202,1.5218,1.5171,1.5171,1.5171,1.5171,1.5271,1.5274,0,0,0,0,0,0,1.5409,1.5398,1.5374,1.537,1.5361,1.5318,1.531,1.5309,1.5259,1.5249,1.5261,1.5254,1.5206,1.5202,1.52,1.5255,1.5171,1.5171,1.5171,1.5269,1.5272,1.5275,0,0,0,0,0,0,1.541,1.5408,1.5376,1.5382,1.5376,1.532,1.532,1.5309,1.5303,1.5251,1.524,1.5266,1.5203,1.52,1.5218,1.5252,1.5171,1.5171,1.5266,1.527,1.5273,1.537,0,0,0,0,0,0,1.5411,1.5409,1.5429,1.5383,1.5376,1.5397,1.5322,1.531,1.5304,1.5295,1.5253,1.5244,1.5201,1.5218,1.5218,1.5251,1.5171,1.5262,1.5267,1.5272,1.5363,1.5377,1.5388,0,0,0,0,0,1.5413,1.5459,1.5431,1.5428,1.54,1.5399,1.5395,1.5344,1.5307,1.5326,1.5292,1.5245,1.5249,1.5221,1.522,1.5253,1.526,1.5266,1.5272,1.5358,1.5374,1.5388,0,0,0,0,0,0,1.5511,1.5452,1.542,1.5453,1.5431,1.5382,1.5405,1.5364,1.5353,1.5345,1.5283,1.5274,1.53,1.5278,1.5249,1.53,1.5247,1.5253,1.5313,1.5328,1.534,1.5344,1.5171,0,0,0,0,0,1.5537,1.5541,1.5489,1.5523,1.5514,1.5462,1.5459,1.5422,1.5398,1.5388,1.5355,1.5333,1.5329,1.5327,1.5321,1.536,1.5348,1.5382,1.5395,1.5405,1.541,1.5427,1.544,1.5294,1.5294,1.5294,0,0,1.559,1.5558,1.5565,1.5542,1.5521,1.5526,1.5455,1.5464,1.5466,1.539,1.5404,1.5379,1.535,1.5378,1.5389,1.5361,1.5448,1.5413,1.5421,1.5421,1.5434,1.5448,1.546,1.5298,1.5298,1.5297,0,0,1.5688,1.5666,1.569,1.567,1.5639,1.5603,1.5609,1.5566,1.5546,1.556,1.5502,1.5503,1.5498,1.5479,1.5468,1.5557,1.5513,1.5557,1.5621,1.5637,1.5649,1.5658,1.5688,1.5699,1.5563,1.5563,1.5563,0,1.5757,1.5762,1.5708,1.5719,1.571,1.5641,1.5664,1.5647,1.5616,1.5611,1.558,1.557,1.5546,1.5567,1.5588,1.5583,1.5586,1.5561,1.5652,1.5661,1.5669,1.5696,1.5708,1.5568,1.5568,1.5567,1.5567,0,1.5848,1.5852,1.5876,1.5846,1.5839,1.5857,1.5804,1.5805,1.5768,1.5735,1.5749,1.5717,1.5701,1.5704,1.5669,1.5719,1.5703,1.5663,1.5608,1.5689,1.5713,1.5724,1.5576,1.5574,1.5572,1.5571,0,0,1.6006,1.5945,1.5954,1.5939,1.5898,1.59,1.5914,1.5898,1.5898,1.5879,1.5887,1.5883,1.5845,1.5833,1.5795,1.581,1.5879,1.5767,1.5766,1.5787,1.5929,1.5958,1.5971,1.5849,1.5851,1.5853,1.5931,0,1.6094,1.6114,1.6065,1.6096,1.6098,1.6031,1.6042,1.6019,1.5988,1.5985,1.5951,1.5948,1.59,1.5891,1.5903,1.5868,1.5906,1.5862,1.5855,1.5855,1.5863,1.5984,1.6015,1.6091,1.594,1.5942,1.5943,0,1.62,1.6184,1.6216,1.6171,1.617,1.6182,1.6161,1.616,1.613,1.6107,1.6093,1.6048,1.6056,1.6005,1.6015,1.5986,1.598,1.5962,1.5964,1.596,1.5903,1.5982,1.6114,1.6125,1.5958,1.5957,1.5956,0,1.6309,1.6296,1.6312,1.6302,1.6251,1.626,1.6239,1.6207,1.62,1.6183,1.6177,1.6161,1.6152,1.6141,1.6092,1.6059,1.6107,1.6052,1.6086,1.6087,1.6098,1.6097,1.6229,1.6098,1.6098,1.6098,1.6097,0,1.6411,1.6432,1.636,1.6371,1.6392,1.6334,1.6357,1.6329,1.6301,1.6303,1.6246,1.6249,1.6185,1.6181,1.6143,1.6156,1.6153,1.6133,1.6122,1.6137,1.6139,1.6131,1.6124,1.6101,1.61,1.6099,1.6099,0,1.6536,1.6489,1.6502,1.6452,1.644,1.6458,1.6415,1.6421,1.6387,1.6391,1.6388,1.6334,1.6326,1.6277,1.6258,1.6232,1.6257,1.6238,1.6267,1.626,1.6296,1.6292,1.6425,1.6439,1.6302,1.6303,1.6304,0,1.6603,1.6618,1.6569,1.6567,1.6548,1.6545,1.6537,1.6481,1.6475,1.6441,1.6451,1.6439,1.6425,1.6415,1.6374,1.6358,1.6336,1.6384,1.6333,1.6347,1.6334,1.6333,1.6333,1.6394,1.6396,1.6397,1.6399,0,1.6727,1.6702,1.6693,1.6675,1.6667,1.665,1.663,1.6631,1.6569,1.6565,1.6555,1.6545,1.6525,1.6512,1.6489,1.6466,1.6422,1.6415,1.6421,1.6436,1.6451,1.6441,1.6294,1.6412,1.641,1.6409,1.6409,1.6408,1.6823,1.6832,1.6798,1.6789,1.6768,1.675,1.6753,1.6718,1.671,1.6689,1.6656,1.6651,1.6619,1.6583,1.6564,1.6558,1.6533,1.6543,1.6545,1.6548,1.6555,1.6454,1.6554,1.6554,1.6553,1.6553,1.6553,0,1.6941,1.6916,1.6908,1.6881,1.6874,1.6833,1.6807,1.6803,1.68,1.6774,1.6761,1.675,1.6737,1.6694,1.6676,1.6679,1.6658,1.6676,1.6674,1.6669,1.658,1.6575,1.6694,1.6694,1.6694,1.6693,1.6693,1.6693,1.7001,1.7013,1.6985,1.6985,1.6959,1.6954,1.6942,1.6925,1.6903,1.6893,1.6882,1.6854,1.682,1.6799,1.6785,1.6772,1.6767,1.6792,1.6773,1.669,1.6676,1.6663,1.6658,1.6792,1.6792,1.6862,1.6863,1.6863]},{"header":{"parameterUnit":"m.s-1","parameterCategory":1,"la1":30.2991,"la2":30.254,"lo1":-89.0895,"lo2":-89.0444,"dy":0.0017,"dx":0.0017,"nx":28,"ny":28,"refTime":"2024-04-14T09:00:00:Z","depth":0,"parameterNumber":3,"parameterNumberName":"V-component_of_WINDS"},"data":[0,0,0,0,0,0,0,0,0,0,0,0,0,0,0,0,0,0,0,0,0,0,0,0,0,0,0,0,0,0,0,0,0,0,0,0,0,0,0,0,0,0,0,0,0,0,0,0,0,0,0,0,0,0,0,0,0,0,3.699,3.6991,0,3.7051,3.7051,3.7052,3.6991,3.6988,3.6986,3.6984,3.7038,3.7041,3.7045,0,0,0,0,0,0,0,0,0,0,0,0,0,3.6814,3.6818,3.699,3.6991,3.6992,3.7051,3.7051,3.7052,3.6991,3.6988,3.6986,3.6983,3.7037,3.7041,3.7045,0,0,0,0,0,0,0,0,0,0,0,0,0,3.6884,3.6819,3.699,3.6969,3.6967,3.705,3.7051,3.7052,3.6992,3.6988,3.6985,3.6981,3.7035,3.7041,3.7046,3.7151,0,0,3.7063,3.7065,0,0,0,0,0,0,0,0,3.688,3.689,3.6971,3.697,3.6969,3.701,3.7009,3.7085,3.6993,3.6982,3.6984,3.698,3.7031,3.7037,3.7055,3.7153,3.7156,3.7063,3.7066,3.7069,3.707,0,0,0,0,0,0,0,3.6875,3.6887,3.7014,3.6972,3.6971,3.6953,3.6959,3.7023,3.7025,3.6983,3.6979,3.6987,3.703,3.705,3.7056,3.7156,3.7063,3.7068,3.7071,3.7073,3.7342,3.7346,0,0,0,0,0,0,3.6874,3.6884,3.7012,3.7016,3.6915,3.6959,3.6966,3.7,3.7025,3.7025,3.699,3.6984,3.7043,3.705,3.7058,3.7182,3.7069,3.7074,3.7077,3.7338,3.7343,3.7347,0,0,0,0,0,0,3.687,3.6886,3.701,3.6949,3.6963,3.6966,3.7005,3.7003,3.7024,3.703,3.7029,3.7011,3.704,3.705,3.7128,3.7183,3.7076,3.7081,3.7334,3.734,3.7345,3.743,0,0,0,0,0,0,3.6866,3.6885,3.6927,3.695,3.6967,3.7082,3.7008,3.7007,3.7034,3.7027,3.705,3.705,3.7038,3.7121,3.7134,3.7188,3.7086,3.7329,3.7336,3.7343,3.7423,3.7438,3.7452,0,0,0,0,0,3.686,3.6947,3.6929,3.6945,3.702,3.7085,3.7094,3.7081,3.7039,3.708,3.7084,3.705,3.7175,3.7129,3.7144,3.72,3.7325,3.7334,3.7342,3.7416,3.7435,3.7452,0,0,0,0,0,0,3.6927,3.695,3.693,3.7029,3.7056,3.7075,3.7126,3.7101,3.7139,3.713,3.7109,3.7115,3.7198,3.7207,3.7156,3.7302,3.7243,3.7255,3.7294,3.7312,3.7326,3.7322,3.709,0,0,0,0,0,3.6954,3.7008,3.7024,3.7109,3.7124,3.7123,3.7151,3.7138,3.7164,3.7175,3.7184,3.7209,3.7253,3.7283,3.7325,3.7424,3.7427,3.747,3.7484,3.7496,3.7507,3.7559,3.7577,3.7375,3.7375,3.7375,0,0,3.7009,3.7028,3.7063,3.7123,3.7142,3.7197,3.7133,3.7192,3.7232,3.7183,3.7258,3.7266,3.7292,3.7381,3.742,3.7391,3.7563,3.7507,3.7517,3.7521,3.7569,3.7589,3.7606,3.7381,3.738,3.7379,0,0,3.7137,3.7158,3.7231,3.7252,3.7284,3.7282,3.73,3.7323,3.7327,3.7403,3.7367,3.7412,3.749,3.7509,3.753,3.7665,3.7635,3.7679,3.7755,3.7806,3.7822,3.7836,3.7883,3.7901,3.7689,3.769,3.769,0,3.72,3.7284,3.727,3.7334,3.736,3.7321,3.7393,3.7414,3.7456,3.7474,3.7441,3.7538,3.7552,3.7645,3.7678,3.7696,3.7714,3.7676,3.7821,3.7835,3.7848,3.7893,3.7911,3.7695,3.7694,3.7694,3.7693,0,3.736,3.7418,3.7472,3.7517,3.755,3.7617,3.7612,3.7646,3.763,3.7632,3.7708,3.7724,3.7768,3.7789,3.7774,3.788,3.786,3.7825,3.7764,3.7872,3.7914,3.7931,3.7702,3.77,3.7699,3.7697,0,0,3.7531,3.7569,3.759,3.7609,3.7641,3.7684,3.7748,3.7794,3.7823,3.7853,3.7906,3.7972,3.794,3.7962,3.7949,3.7994,3.8099,3.7952,3.7952,3.7978,3.8216,3.8242,3.8263,3.8079,3.8082,3.8085,3.8213,0,3.766,3.7776,3.7766,3.7873,3.7926,3.7889,3.7945,3.7969,3.7972,3.8015,3.8016,3.8065,3.8018,3.8031,3.8074,3.8077,3.8146,3.8068,3.8125,3.8128,3.812,3.8285,3.8313,3.8434,3.823,3.8232,3.8234,0,3.7825,3.7865,3.7979,3.8003,3.8024,3.8075,3.8116,3.8158,3.8183,3.8182,3.8209,3.8187,3.8249,3.8188,3.8272,3.8219,3.8242,3.8247,3.8251,3.8256,3.8187,3.8293,3.8472,3.849,3.826,3.8258,3.8256,0,3.7939,3.8019,3.8098,3.8116,3.8146,3.8183,3.8196,3.8219,3.8247,3.8281,3.8299,3.8339,3.8361,3.8392,3.8381,3.8338,3.8467,3.8405,3.8466,3.8467,3.8495,3.8493,3.8679,3.8511,3.851,3.851,3.851,0,3.8083,3.8154,3.815,3.8198,3.8276,3.8263,3.8339,3.8347,3.8368,3.8415,3.8385,3.843,3.8413,3.8456,3.8447,3.8518,3.8528,3.8527,3.8524,3.853,3.853,3.8544,3.8535,3.8515,3.8514,3.8513,3.8512,0,3.8222,3.8223,3.8306,3.8329,3.8336,3.8392,3.8409,3.8454,3.8455,3.8515,3.8528,3.8528,3.8577,3.857,3.8623,3.8617,3.8705,3.8692,3.8698,3.8694,3.8756,3.875,3.8957,3.8983,3.8798,3.88,3.8801,0,3.8314,3.8369,3.8398,3.8429,3.8446,3.8496,3.8525,3.8513,3.8544,3.8578,3.8617,3.8664,3.8701,3.878,3.8784,3.8824,3.8811,3.8881,3.8817,3.8821,3.8811,3.8808,3.8813,3.8893,3.8895,3.8897,3.8898,0,3.8477,3.8475,3.852,3.8565,3.8601,3.8635,3.8665,3.8692,3.8682,3.8718,3.877,3.8798,3.8854,3.89,3.8938,3.8949,3.8922,3.8919,3.8935,3.8941,3.8942,3.8942,3.8732,3.8914,3.8912,3.8911,3.891,3.891,3.8595,3.8642,3.867,3.872,3.8743,3.8772,3.8815,3.8822,3.8865,3.8912,3.8901,3.8959,3.8982,3.903,3.9046,3.9089,3.9062,3.9086,3.9092,3.9098,3.9105,3.8936,3.9095,3.9095,3.9094,3.9094,3.9094,0,3.8756,3.8772,3.8819,3.8865,3.8904,3.8878,3.891,3.8944,3.8996,3.9021,3.9059,3.9117,3.9161,3.9169,3.9211,3.9244,3.9232,3.9255,3.9252,3.9255,3.9126,3.9108,3.9264,3.9264,3.9264,3.9263,3.9263,3.9263,3.8844,3.8921,3.8922,3.9009,3.9024,3.9083,3.9104,3.913,3.915,3.9217,3.9255,3.9261,3.9278,3.9321,3.936,3.9361,3.9378,3.9405,3.9401,3.9281,3.9264,3.9248,3.923,3.9409,3.9409,3.9526,3.9527,3.9528]}]]